Showing default

GHGSAT-C1, 46278

Orbit data source: Space-Track

GHGSAT-C1, 46278 is a payload satellite owned by GHG (CA) in SSO that was launched on Thu, 03 Sep 2020 UTC via a VEGA launch vehicle from the French Guiana (FRGUI). Payload-class satellites include a variety of spacecraft equipped with specific instruments for various scientific and technological missions. These include communications satellites like Starlink; space stations such as the ISS; scientific satellites like the Hubble; Earth observation satellites from companies like Planet Labs, Umbra, and HawkEye 360; GPS; miniature CubeSats for education and research; and military/defense satellites.

Loading next visibility...
Identifier
46278, 2020-061G
Orbit
SSO
Country
Flag of CACA
Related business
Manufacturer
UTIAS-SFL
Mission
Operational Commercial Earth Obs Sci
Bus & Motor
NEMO-V1, Unknown motor
Mass
15 kg wet, 15 kg dry
Launch date (UTC)
2020-09-03 (5 years ago)
Launch vehicle
VEGA
Launch site
French Guiana (FRGUI)
Object type
Payload
Rocket body
Debris
Shape & HBR
Box, 1.0 m
Radar Cross Section
0.100 m², Medium (>0.1 m² and < 1m²)

Expand to show TLE details & history
Last TLE update: 9 hours ago

TLE from 9 hours ago
0 GHGSAT-C1
1 46278U 20061G   26062.20518046  .00037250  00000-0  39566-3 0  9997
2 46278  97.2179 144.4115 0002403  90.3742 269.7792 15.63973989306874
Epoch: 2026-03-03T04:55Z
TLE epoch observation values (Epoch: 2026-03-03T04:55:27.591Z)
Latitude
-0.00012°
Longitude
-90.44103°
Altitude
379.353 km
Speed
7.682 km/s
True Right ascension
09h 37m 38s
True Declination
0° 00' 00"
Sunlit
Object was in full shadow at epoch
Visualization orbit readout
Latitude
Unknown
Longitude
Unknown
Altitude
Unknown
Speed
Unknown
Apparent Right ascension
Unknown
Apparent Declination
Unknown
Sunlit
N/A
Visualization observer readout
Local Sidereal Time
17:57:58
Azimuth
Unknown
Elevation
Unknown
Doppler factor
Unknown
Orbital elements
Apogee altitude
374.713 km
Perigee altitude
371.468 km
Semi-major axis
6,751.228 km
Eccentricity
0.00024
Inclination
97.2179°
RAAN
144.4115°
Arg. of periapsis
90.3742°
True anomaly
269.75166°
Mean anomaly
269.7792°
Eccentric anomaly
269.76543°
Mean motion
3.91263 °/min
Orbital period
92.01 mins
BSTAR
0.00039566
Loading maneuver chart data...
Computing Atmospheric mass density...
Loading historical data...
Loading historical data...
Loading historical data...
Loading historical data...
Loading historical data...
Loading historical data...
Loading historical data...

Documentation

Showing up to 5 results
|